Preview of NWS' New Version of Forecast
This preview is not operational and should not be used for support decisions.

Regional Weather Roundup (RWR)

Issued by National Weather Service (NWS)

                            
000
ASUS42 KTBW 240815
RWRFL 
FLORIDA REGIONAL WEATHER ROUNDUP
NATIONAL WEATHER SERVICE TAMPA BAY RUSKIN FL
400 AM EDT MON JUN 24 2019

NOTE: "FAIR" INDICATES FEW OR NO CLOUDS BELOW 12,000 FEET WITH NO
SIGNIFICANT WEATHER AND/OR OBSTRUCTIONS TO VISIBILITY.

FLZ001>010-012>015-112-114-115-240900-
PANHANDLE FLORIDA
  
CITY           SKY/WX    TMP DP  RH WIND       PRES   REMARKS
PENSACOLA      FAIR      84  79  85 S12       29.95F HX  96           
PENSACOLA NAS  FAIR      83  78  85 S15G23    29.95F                  
CRESTVIEW      FAIR      77  74  90 S3        29.98F FOG              
DUKE FIELD     FAIR      78  76  95 S6        29.96F                  
VALPARAISO     FAIR      83  76  79 S10       29.95F                  
MARY ESTHER    PTCLDY    83  75  74 S9        29.94F                  
TRI COUNTY     FAIR      74  74 100 CALM      29.98F                  
PANAMA CITY    FAIR      81  76  84 S6        29.97F                  
TYNDALL AFB    FAIR      83  76  79 SW10      29.98S                  
APALACHICOLA   FAIR      82  75  79 SW7       29.99F                  

STATION/POSITION SKY/WX   TEMP    WIND        PRES    WAVE   SWELL
                          AIR SEA DIR/SP/G            HT/PER HT/PER
                          (F)     (DEG/KT/KT) (MB)    (FT/S) (FT/S)
PANAMA CITY BEAC           83 85  210/ 13/ 16 1015.6
TOWER C          NOT AVBL

$$
FLZ011-016>038-118-127-128-134-139-239-240900-
NORTH FLORIDA
  
CITY           SKY/WX    TMP DP  RH WIND       PRES   REMARKS
MARIANNA       FAIR      75  74  96 S5        29.97F                  
TALLAHASSEE    FAIR      76  74  93 CALM      29.99S                  
PERRY          FAIR      75  74  97 CALM      30.00S FOG              
LIVE OAK       FOG       73  73 100 CALM      30.00S VSB 1            
CROSS CITY     FAIR      75  75  98 CALM      29.99F FOG              
LAKE CITY      FAIR      73  72  94 CALM      30.00F                  
GAINESVILLE    FAIR      75  74  96 W3        30.02F                  
PALATKA        FAIR      72  72 100 W3        30.00S                  
MAYPORT NAS    FAIR      79  73  82 W5        29.99R                  
JACKSONVILLE   MOCLDY    74  71  91 CALM      29.98S                  
JAX NAS        FAIR      79  68  69 SW6       29.99S                  
JAX CECIL      FAIR      72  70  94 CALM      29.99S                  
FERNANDINA BEA MOCLDY    75  73  93 NW5       30.00R                  
ST AUGUSTINE   FAIR      73  69  87 SW5       29.99F                  
PALM COAST     FAIR      73  71  92 CALM      30.00S                  

STATION/POSITION SKY/WX   TEMP    WIND        PRES    WAVE   SWELL
                          AIR SEA DIR/SP/G            HT/PER HT/PER
                          (F)     (DEG/KT/KT) (MB)    (FT/S) (FT/S)
SHELL POINT      NOT AVBL
KEATON BEACH               83     250/ 11/ 12 1015.5F
CEDAR KEY                  83     270/  5/  7 1016.0F
FERNANDINA                 80 83  260/  4/  5 1016.4S
30.7N   81.3W                 82                N/A     1/10
MAYPORT                    78 81  240/  5/  6 1015.8R
ST AUGUSTINE               76 80  230/  7/  9 1015.5F

$$
FLZ040-043>046-052-053-057-058-063-144-240900-
INTERIOR CENTRAL FLORIDA
  
CITY           SKY/WX    TMP DP  RH WIND       PRES   REMARKS
OCALA          FAIR      73  73 100 CALM      30.01F                  
LEESBURG       FAIR      75  74  96 SW3       30.01F                  
SANFORD        FAIR      78  73  84 S5        30.00F                  
ORLANDO EXEC   FAIR      80  73  79 W3        30.01F                  
ORLANDO INTL   FAIR      79  72  79 CALM      30.01F                  
KISSIMMEE      FAIR      77  73  87 W5        30.02F                  
WINTER HAVEN   FAIR      78  73  84 CALM      30.03F                  
LAKELAND       FAIR      73  72  94 CALM      30.03S                  
BARTOW           N/A     75  72  88 CALM      30.01F                  
SEBRING        FAIR      77  75  95 NW5       30.01S                  
OKEECHOBEE     FAIR      79  75  89 S3        30.00S                  

$$
FLZ041-047-054-059-064-141-147-240900-
EAST CENTRAL FLORIDA
  
CITY           SKY/WX    TMP DP  RH WIND       PRES   REMARKS
DAYTONA BEACH  FAIR      75  74  96 SW6       29.99F                  
DELAND         FAIR      77  72  83 CALM      30.00S                  
JFK SPACE CTR  FAIR      75  61  62 CALM      29.99F                  
CAPE CANAVERAL FAIR      73  38  28 CALM      29.98F                  
PATRICK AFB    FAIR      77  77 100 CALM      29.99F                  
MELBOURNE      FAIR      80  75  84 CALM      29.99F                  
VERO BEACH     FAIR      81  76  84 S6        29.99F                  
FT PIERCE      FAIR      79  74  84 S3        29.99F                  
STUART         CLOUDY    81  73  78 SW5       30.01F                  

STATION/POSITION SKY/WX   TEMP    WIND        PRES    WAVE   SWELL
                          AIR SEA DIR/SP/G            HT/PER HT/PER
                          (F)     (DEG/KT/KT) (MB)    (FT/S) (FT/S)
TRIDENT PIER               75 75  170/  1/  2 1017.3F
28.4N   80.5W                 75                N/A     1/10
27.5N   80.2W                 82                N/A     1/ 9

$$
FLZ050-056-061-142-242-148-248-149-249-151-251-155-255-
160-260-240900-
WEST CENTRAL FLORIDA
  
CITY           SKY/WX    TMP DP  RH WIND       PRES   REMARKS
CRYSTAL RIVER  FAIR     N/A N/A N/A CALM      30.01S HAZE             
INVERNESS      FAIR      72  72 100 CALM      30.01F FOG              
BROOKSVILLE    FOG       70  69  97 CALM      30.02S VSB 1/2          
CLEARWATER AIR FAIR      77  73  88 CALM      30.01S                  
ST PETE CLEARW FAIR      76  74  93 S3        30.01S                  
TAMPA INTL     FAIR      80  75  84 SE3       30.02S                  
PLANT CITY       N/A    N/A N/A N/A MISG        N/A                   
MACDILL AFB    FAIR      76  73  90 CALM      30.01S                  
PETER O KNIGHT CLOUDY   N/A N/A N/A E3        30.02S                  
ST PETERSBURG  FAIR      82  75  79 CALM      30.00S                  
SARASOTA       FAIR      78  75  90 CALM      30.00S                  
VENICE         FAIR      79  77  94 E5        30.02F                  

STATION/POSITION SKY/WX   TEMP    WIND        PRES    WAVE   SWELL
                          AIR SEA DIR/SP/G            HT/PER HT/PER
                          (F)     (DEG/KT/KT) (MB)    (FT/S) (FT/S)
27.3N   84.2W                 86                N/A     1/ 6
CLEARWATER BEACH           83 90  280/  6/  7 1016.5
MIDDLE TAMPA BAY           82     360/  4/  5 1016.6S
VENICE                     79 86   80/  5/  5 1016.5R

$$
FLZ066-069-070-075>078-162-262-165-265-240900-
SOUTHWEST FLORIDA AND KEYS
  
CITY           SKY/WX    TMP DP  RH WIND       PRES   REMARKS
PUNTA GORDA    FAIR      78  75  90 NW5       30.03S                  
FT MYERS       FAIR      80  72  76 W3        30.01F                  
SOUTHWEST INTL FAIR      80  76  87 SW3       30.02S                  
NAPLES         FAIR      82  78  88 CALM      30.02S                  
IMMOKALEE      FAIR      77  75  94 CALM      30.00F                  
MARATHON       FAIR      84  75  74 CALM      30.01F                  
KEY WEST NAS   FAIR      84  76  76 CALM      30.02S                  
KEY WEST INTL  FAIR      83  75  77 S6        30.02F                  

STATION/POSITION SKY/WX   TEMP    WIND        PRES    WAVE   SWELL
                          AIR SEA DIR/SP/G            HT/PER HT/PER
                          (F)     (DEG/KT/KT) (MB)    (FT/S) (FT/S)
NAPLES                     85 90              1016.8R
DRY TORTUGAS     NOT AVBL

$$
FLZ067-068-071>074-168-172>174-240900-
SOUTHEAST FLORIDA 
  
CITY           SKY/WX    TMP DP  RH WIND       PRES   REMARKS
W PALM BEACH   FAIR      82  76  81 S5        30.01F                  
FT LAUDER-EXEC FAIR      81  75  82 CALM      30.01F                  
FT LAUDERDALE  FAIR      82  76  81 SW3       30.01S                  
POMPANO BEACH  FAIR      82  75  79 CALM      30.01F                  
PEMBROKE PINES FAIR      82  74  76 CALM      30.03F                  
OPA LOCKA      FAIR      82  75  79 CALM      30.02F                  
MIAMI          FAIR      83  73  72 S3        30.02S                  
WEST KENDALL   FAIR      78  74  87 CALM      30.02S                  
HOMESTEAD      FAIR      79  74  84 CALM      30.01S                  

STATION/POSITION SKY/WX   TEMP    WIND        PRES    WAVE   SWELL
                          AIR SEA DIR/SP/G            HT/PER HT/PER
                          (F)     (DEG/KT/KT) (MB)    (FT/S) (FT/S)
VIRGINIA KEY               84 90  230/  2/  3 1016.1
LAKE WORTH                 82 84  210/  3/  4 1017.6S
FOWEY ROCKS                83 84  190/  4/  4 1016.8F
SETTLEMENT POINT           84     220/  7/  8 1016.2F

$$